Starlink 32875

operational
NORAD ID: 62951 Int'l Des: 2025-029 Owner: SPXS Country: US Constellation: starlink
LEOCIRCULAR

About Starlink 32875

Description loading...

Live Position

Loading 3D Globe...

Upcoming Passes

Altitude History

Altitude vs Time

uPlot chart will show altitude changes over time

Two-Line Element Set

1 62951U 25029D 26035.14786679 .00026148 00000-0 89153-3 0 9995
2 62951 53.1617 26.0232 0001588 86.6255 273.4927 15.30212241 56227
Epoch: Feb 4, 2026 • Age: 5 hours

Current Status

Altitude 479.2 km
Velocity 7.63 km/s
Sub-Earth Point 46.70°N, 113.02°W
Launch Date Feb 11, 2025
Age 0.9 years
Type internet

Technical Details

Classification Payload
Mass 730.00 kg
Dry Mass 700.00 kg
Total Mass 730.00 kg
Length 0.30 m
Diameter 4.10 m
Span 29.00 m
Shape Box + pan
Manufacturer SPXS
Bus Type Starlink V2M
Phase Status In Orbit
Owner/State SPXS/US

Large Constellations

Loading constellations...